Weather History for Ogallala, NE

Change the Weather History Date:

Tuesday, February 19, 2013

  Actual Average Record
Temperature  
Mean Temperature 26 °F -  
Max Temperature 40 °F 45 °F 69 °F (1983)
Min Temperature 12 °F 18 °F -7 °F (1993)
Degree Days  
Heating Degree Days 39    
Moisture  
Dew Point 15 °F    
Average Humidity 66    
Maximum Humidity 91    
Minimum Humidity 39    
Precipitation  
Precipitation 0.00 in - - ()
Sea Level Pressure  
Sea Level Pressure 30.11 in    
Wind  
Wind Speed 5 mph (SE)    
Max Wind Speed 16 mph    
Max Gust Speed 24 mph    
Visibility 10 miles    
Events      
Averages and records for this station are not official NWS values.
T = Trace of Precipitation, MM = Missing Value Source: NWS Daily Summary

Daily Weather History Graph

Daily Weather History Graph

Search for Another Location

Airport:

Trip Planner

Search our weather history database for the weather conditions in past years. The results will help you decide how hot, cold, wet, or windy it might be!

Date:

Astronomy

Feb. 19, 2013 Rise Set
Actual Time 6:35 AM MST 5:26 PM MST
Civil Twilight 6:07 AM MST 5:54 PM MST
Nautical Twilight 5:35 AM MST 6:26 PM MST
Astronomical Twilight 5:03 AM MST 6:58 PM MST
Moon 11:58 AM MST (2/19) 2:10 AM MST (2/19)
Length of Visible Light 11h 46m
Length of Day
10h 50m
Waxing Gibbous, 68% of the Moon is Illuminated
Feb 19
Waxing Gibbous
Feb 25
Full
Mar 4
Last Quarter
Mar 11
New
Mar 19
First Quarter

Hourly Weather History & Observations

Time (MST) Temp. Windchill Dew Point Humidity Pressure Visibility Wind Dir Wind Speed Gust Speed Precip Events Conditions
12:15 AM 16.5 °F - 14.0 °F 90% 30.12 in 10.0 mi Calm Calm - N/A   Clear
12:35 AM 18.1 °F - 14.4 °F 85% 30.12 in 10.0 mi Calm Calm - N/A   Clear
12:55 AM 18.5 °F - 14.9 °F 86% 30.12 in 10.0 mi Calm Calm - N/A   Clear
1:15 AM 18.1 °F 12.9 °F 15.1 °F 88% 30.12 in 10.0 mi WNW 3.5 mph - N/A   Clear
1:35 AM 18.1 °F - 15.1 °F 88% 30.13 in 10.0 mi Calm Calm - N/A   Clear
1:55 AM 15.8 °F 7.2 °F 12.9 °F 88% 30.14 in 10.0 mi West 5.8 mph - N/A   Clear
2:15 AM 16.0 °F 8.8 °F 13.3 °F 89% 30.14 in 10.0 mi SW 4.6 mph - N/A   Clear
2:35 AM 14.9 °F 9.2 °F 12.7 °F 91% 30.14 in 10.0 mi West 3.5 mph - N/A   Clear
2:55 AM 14.0 °F 8.2 °F 11.7 °F 90% 30.14 in 10.0 mi NW 3.5 mph - N/A   Clear
3:15 AM 12.9 °F - 9.9 °F 88% 30.14 in 10.0 mi Calm Calm - N/A   Clear
3:35 AM 13.1 °F - 10.9 °F 91% 30.15 in 10.0 mi Calm Calm - N/A   Clear
3:55 AM 13.1 °F - 10.8 °F 90% 30.15 in 10.0 mi Calm Calm - N/A   Scattered Clouds
4:15 AM 14.7 °F - 12.4 °F 90% 30.15 in 10.0 mi Calm Calm - N/A   Mostly Cloudy
4:55 AM 14.9 °F - 12.0 °F 88% 30.16 in 10.0 mi Calm Calm - N/A   Mostly Cloudy
5:15 AM 16.0 °F - 12.7 °F 87% 30.16 in 10.0 mi Calm Calm - N/A   Mostly Cloudy
5:35 AM 15.1 °F - 12.6 °F 90% 30.15 in 10.0 mi Calm Calm - N/A   Scattered Clouds
5:55 AM 13.6 °F - 11.3 °F 90% 30.16 in 10.0 mi Calm Calm - N/A   Clear
6:15 AM 13.3 °F - 11.1 °F 91% 30.16 in 10.0 mi Calm Calm - N/A   Scattered Clouds
6:35 AM 13.6 °F - 10.9 °F 89% 30.17 in 10.0 mi Calm Calm - N/A   Mostly Cloudy
6:55 AM 13.8 °F - 11.1 °F 89% 30.17 in 10.0 mi Calm Calm - N/A   Scattered Clouds
7:15 AM 14.4 °F - 11.8 °F 90% 30.18 in 10.0 mi Calm Calm - N/A   Clear
7:35 AM 16.7 °F - 14.0 °F 89% 30.18 in 10.0 mi Calm Calm - N/A   Clear
7:55 AM 19.4 °F 12.8 °F 15.8 °F 86% 30.18 in 10.0 mi East 4.6 mph - N/A   Clear
8:15 AM 21.2 °F 11.7 °F 16.7 °F 83% 30.19 in 10.0 mi East 8.1 mph - N/A   Clear
8:35 AM 22.6 °F 13.4 °F 16.7 °F 78% 30.19 in 10.0 mi East 8.1 mph - N/A   Clear
8:55 AM 24.1 °F 16.0 °F 17.6 °F 76% 30.19 in 10.0 mi East 6.9 mph - N/A   Clear
9:15 AM 25.3 °F 16.7 °F 17.8 °F 73% 30.19 in 10.0 mi ESE 8.1 mph - N/A   Clear
9:35 AM 25.9 °F 17.4 °F 16.7 °F 68% 30.19 in 10.0 mi East 8.1 mph - N/A   Clear
10:15 AM 29.1 °F 21.3 °F 18.3 °F 64% 30.18 in 10.0 mi ESE 8.1 mph - N/A   Clear
10:35 AM 30.2 °F 22.6 °F 19.0 °F 63% 30.18 in 10.0 mi SE 8.1 mph - N/A   Clear
10:55 AM 31.8 °F 24.6 °F 18.7 °F 58% 30.17 in 10.0 mi ESE 8.1 mph - N/A   Clear
11:15 AM 33.3 °F 25.7 °F 19.6 °F 57% 30.16 in 10.0 mi SE 9.2 mph - N/A   Clear
11:35 AM 33.8 °F 26.4 °F 19.4 °F 56% 30.15 in 10.0 mi SSE 9.2 mph - N/A   Clear
11:55 AM 35.6 °F 28.0 °F 19.2 °F 51% 30.13 in 10.0 mi SE 10.4 mph 18.4 mph N/A   Clear
12:15 PM 36.5 °F 29.7 °F 19.6 °F 50% 30.12 in 10.0 mi SE 9.2 mph - N/A   Clear
12:35 PM 36.5 °F 28.7 °F 19.4 °F 50% 30.11 in 10.0 mi SE 11.5 mph 16.1 mph N/A   Clear
12:55 PM 37.4 °F 29.3 °F 19.4 °F 48% 30.10 in 10.0 mi SE 12.7 mph 18.4 mph N/A   Clear
1:15 PM 37.4 °F 29.8 °F 19.4 °F 48% 30.08 in 10.0 mi SE 11.5 mph 18.4 mph N/A   Clear
1:35 PM 39.0 °F 31.8 °F 19.4 °F 45% 30.07 in 10.0 mi SSE 11.5 mph - N/A   Clear
1:55 PM 39.2 °F 31.6 °F 19.2 °F 45% 30.06 in 10.0 mi SE 12.7 mph 18.4 mph N/A   Clear
2:15 PM 39.2 °F 31.2 °F 18.9 °F 44% 30.05 in 10.0 mi ESE 13.8 mph - N/A   Clear
2:35 PM 39.4 °F 31.4 °F 18.3 °F 43% 30.05 in 10.0 mi SSE 13.8 mph - N/A   Clear
2:55 PM 39.6 °F 31.0 °F 18.3 °F 42% 30.05 in 10.0 mi SE 16.1 mph 19.6 mph N/A   Clear
3:15 PM 40.5 °F 34.1 °F 18.3 °F 41% 30.05 in 10.0 mi SE 10.4 mph 20.7 mph N/A   Clear
3:35 PM 40.3 °F 31.9 °F 17.2 °F 39% 30.05 in 10.0 mi SSE 16.1 mph 21.9 mph N/A   Clear
3:55 PM 38.8 °F 30.4 °F 17.6 °F 42% 30.04 in 10.0 mi SSE 15.0 mph 19.6 mph N/A   Clear
4:15 PM 39.2 °F 30.8 °F 17.2 °F 41% 30.04 in 10.0 mi SSE 15.0 mph 21.9 mph N/A   Clear
5:35 PM 34.0 °F 25.5 °F 17.4 °F 51% 30.03 in 10.0 mi SE 11.5 mph - N/A   Clear
5:55 PM 32.4 °F 24.0 °F 17.4 °F 54% 30.04 in 10.0 mi ESE 10.4 mph - N/A   Clear
6:15 PM 31.5 °F 23.5 °F 17.2 °F 56% 30.04 in 10.0 mi ESE 9.2 mph - N/A   Clear
6:35 PM 30.2 °F 20.8 °F 16.7 °F 57% 30.04 in 10.0 mi ESE 11.5 mph - N/A   Clear
6:55 PM 29.3 °F 19.6 °F 16.5 °F 59% 30.04 in 10.0 mi ESE 11.5 mph - N/A   Clear
7:15 PM 28.8 °F 19.0 °F 16.3 °F 60% 30.05 in 10.0 mi ESE 11.5 mph - N/A   Clear
7:35 PM 28.4 °F 18.0 °F 15.8 °F 59% 30.05 in 10.0 mi ESE 12.7 mph - N/A   Clear
7:55 PM 28.4 °F 17.5 °F 15.3 °F 58% 30.05 in 10.0 mi ESE 13.8 mph 18.4 mph N/A   Clear
8:15 PM 27.9 °F 16.3 °F 14.5 °F 57% 30.05 in 10.0 mi ESE 15.0 mph - N/A   Clear
8:55 PM 26.4 °F 14.5 °F 11.7 °F 54% 30.07 in 10.0 mi ESE 15.0 mph 20.7 mph N/A   Clear
9:15 PM 25.5 °F 13.8 °F 10.4 °F 53% 30.07 in 10.0 mi ESE 13.8 mph - N/A   Clear
9:35 PM 24.6 °F 13.2 °F 9.9 °F 54% 30.07 in 10.0 mi ESE 12.7 mph - N/A   Clear
9:55 PM 23.9 °F 12.9 °F 9.5 °F 54% 30.06 in 10.0 mi ESE 11.5 mph 17.3 mph N/A   Clear
10:15 PM 23.5 °F 11.3 °F 9.1 °F 54% 30.06 in 10.0 mi ESE 13.8 mph - N/A   Clear
10:35 PM 23.0 °F 9.6 °F 8.1 °F 53% 30.06 in 10.0 mi ESE 16.1 mph 19.6 mph N/A   Clear
10:55 PM 22.6 °F 9.2 °F 7.3 °F 52% 30.05 in 10.0 mi ESE 16.1 mph 23.0 mph N/A   Clear
11:15 PM 21.9 °F 8.2 °F 6.8 °F 52% 30.05 in 10.0 mi ESE 16.1 mph 21.9 mph N/A   Clear
11:35 PM 21.6 °F 7.8 °F 5.7 °F 51% 30.04 in 10.0 mi ESE 16.1 mph 20.7 mph N/A   Clear
11:55 PM 21.2 °F 7.3 °F 5.2 °F 50% 30.03 in 10.0 mi ESE 16.1 mph 24.2 mph N/A   Clear